Regional Weather Roundup
Issued by NWS

Home | Current Version | Previous Version | Text Only | Print | Product List | Glossary Off
Versions: 1 2 3 4 5 6 7 8 9 10 11 12 13 14 15 16 17 18 19 20 21 22 23 24 25 26 27 28 29 30 31 32 33 34 35 36 37 38 39 40 41 42 43 44 45 46 47 48 49 50

000
ASUS43 KDTX 250201
RWRMI
MICHIGAN HOURLY REGIONAL WEATHER ROUNDUP
NATIONAL WEATHER SERVICE DETROIT/PONTIAC MI
900 PM EST FRI FEB 24 2017

NOTE: "FAIR" INDICATES FEW OR NO CLOUDS BELOW 12,000 FEET WITH NO
SIGNIFICANT WEATHER AND/OR OBSTRUCTION TO VISIBILITY.

MIZ047>049-052>055-059>063-066>070-074>076-081>083-250300-
SOUTHEAST LOWER MICHIGAN

CITY           SKY/WX    TMP DP  RH WIND       PRES   REMARKS
ADRIAN         MOCLDY    60  53  77 SW12      29.44F
ALMA           LGT RAIN  38  38  97 CALM      29.43F
ANN ARBOR      CLOUDY    59  53  80 S8        29.43S
BAD AXE        LGT RAIN  46  46 100 SE5       29.41F
CARO           LGT RAIN  43  43 100 E3        29.39F
DETROIT CITY   MOCLDY    59  52  77 S10       29.43F
DETROIT        CLOUDY    61  53  75 S12       29.44F
FLINT          LGT RAIN  58  55  90 SW7       29.40F
GROSSE ILE     MOCLDY    47  44  91 S6        29.44F
HILLSDALE      RAIN      55  54  94 SW13      29.44R
HOWELL         LGT RAIN  59  53  82 SW3       29.39F

CITY           SKY/WX    TMP DP  RH WIND       PRES   REMARKS
JACKSON        CLOUDY    58  54  86 SW14      29.42S
LAMBERTVILLE   CLOUDY    64  51  62 SW10G17   29.44F
LANSING        CLOUDY    55  51  86 W13G23    29.41R
LAPEER         CLOUDY    59  52  78 S8        29.41F
MASON          HVY RAIN  56  55  95 SW7       29.40F
MONROE         CLOUDY    63  54  72 S14G23    29.43F
MT. CLEMENS    MOCLDY    53  52  95 S8        29.42S
PONTIAC        CLOUDY    60  51  72 S8        29.40F
PORT HOPE        N/A     42  41  96 W6        29.41F
PORT HURON     MOCLDY    57  52  82 S8        29.44S
TRI CITIES     HVY RAIN  38  38 100 NE6       29.42F FOG     WCI  33
MIDLAND        LGT RAIN  38  37  94 CALM      29.42S
TROY           CLOUDY    61  53  74 S8        29.44F
SAGINAW HB     DRIZZLE   37  36  93 N3        29.41F
$$
MIZ043>046-050>051-056>058-064>065-071>073-077>080-250300-
SOUTHWEST LOWER MICHIGAN

CITY           SKY/WX    TMP DP  RH WIND       PRES   REMARKS
BATTLE CREEK   LGT RAIN  49  46  90 W16       29.48R
BENTON HARBOR  CLOUDY    38  36  92 W14       29.53R FOG     WCI  30
BIG RAPIDS     CLOUDY    37  36  96 CALM      29.41F FOG
COLDWATER      LGT RAIN  51  50  98 W20       29.47R
FREMONT        CLOUDY    39  39 100 W5        29.42S FOG
HOLLAND        FOG       39  38  96 SW10      29.46R VSB 1   WCI  32
GRAND RAPIDS   CLOUDY    46  42  86 W18       29.43F
IONIA          CLOUDY    45  45  99 W13       29.41F FOG
KALAMAZOO      CLOUDY    45  39  79 W17G30    29.51R
LUDINGTON      CLOUDY    34  34 100 N5        29.44S FOG     WCI  30
MARSHALL       LGT RAIN  52  52  98 W16G23    29.45R
MOUNT PLEASANT CLOUDY    37  36  98 N3        29.41F FOG
MUSKEGON       FOG       39  38  96 W6        29.42F VSB 3/4 WCI  35
SOUTH HAVEN    FOG       37  37 100 W9        29.50R VSB 1/2 WCI  31
$$
MIZ016>042-250300-
NORTHERN LOWER MICHIGAN

CITY           SKY/WX    TMP DP  RH WIND       PRES   REMARKS
ALPENA         LGT RAIN  34  34 100 NE10      29.50F WCI  26
BEAVER ISLAND  CLOUDY    28  28  99 NE9       29.54F FOG     WCI  19
BELLAIRE       CLOUDY    33  32  96 N7        29.47F FOG     WCI  27
CADILLAC       MIX PCPN  33  32  98 NE6       29.41F WCI  27
CHARLEVOIX     CLOUDY    32  32 100 NE13G18   29.53S FOG     WCI  22
FRANKFORT      CLOUDY    33  33  97 NE3       29.46F FOG
GAYLORD        CLOUDY    33  29  85 E7G21     29.45F FOG     WCI  27
GRAYLING       CLOUDY    33  32  96 E9        29.45F FOG     WCI  25
HARBOR SPRINGS CLOUDY    31  30  96 NE15G21   29.49F FOG     WCI  20
HOUGHTON LAKE  CLOUDY    34  32  92 NE7       29.42F WCI  28
MANISTEE       MIX PCPN  34  33  96 NE8       29.43F FOG     WCI  27
OSCODA         MIX PCPN  36  35  96 NE8       29.44F WCI  29
PELLSTON       LGT SNOW  31  28  89 NE10      29.53F FOG     WCI  22
ROGERS CITY    CLOUDY    33  31  94 E7        29.54F WCI  26
TRAVERSE CITY  DRIZZLE   34  33  96 N10       29.45F FOG     WCI  26
$$
MIZ007>008-015-250300-
EASTERN UPPER MICHIGAN

CITY           SKY/WX    TMP DP  RH WIND       PRES   REMARKS
KINROSS        FLURRIES  25  23  92 NE9       29.58S WCI  15
MACKINAC ISLAN LGT SNOW  28  28 100 NE15      29.54F WCI  17
NEWBERRY       LGT SNOW  22  21  96 N10G17    29.58F WCI  11
S. S. MARIE    LGT SNOW  26  20  77 NE10G18   29.57F WCI  16
MUNISING         N/A     26  24  92 NE22      29.63S WCI  12
$$
MIZ004>006-011>014-085-250300-
CENTRAL UPPER MICHIGAN

CITY           SKY/WX    TMP DP  RH WIND       PRES   REMARKS
MANISTIQUE     CLOUDY    25  24  97 N14G21    29.58F FOG     WCI  13
ESCANABA       LGT SNOW  26  23  88 N9        29.60S FOG     WCI  17
MENOMINEE      CLOUDY    24  22  91 N14       29.60S FOG     WCI  12
SAWYER-GWINN   LGT SNOW  21  19  93 N18G25    29.62F WCI   6
$$
MIZ001>003-009>011-084-250300-
WESTERN UPPER MICHIGAN

CITY           SKY/WX    TMP DP  RH WIND       PRES   REMARKS
IRON MOUNTAIN  CLOUDY    21  13  71 N16       29.62S WCI   7
HOUGHTON       LGT SNOW  19  14  81 N13       29.73F WCI   6
COPPER HARBOR    N/A     24  17  74 NE24G30   29.76F WCI   8
IRONWOOD       LGT SNOW  17  14  88 N13G18    29.78F FOG     WCI   4
$$

ABBREVIATIONS USED IN REMARKS
   TC - TEMPERATURE IN CELSIUS
  WCI - WIND CHILL INDEX
   HX - HEAT INDEX
  VSB - VISIBILITY




USA.gov is the U.S. government's official web portal to all federal, state and local government web resources and services.